www.pogodaiklimat.ru

Погода и климат >> Архив погоды >> Россия >> Ненецкий АО >> Варандей


ПОГОДА в Варандее

  • Прогноз погоды в Варандее
  • Монитор погоды в Варандее

АРХИВ ПОГОДЫ в Варандее

Время (UTC), дата Ветер
(напр.,м/с)
 
Видим.   Явления Облачность Т
(С)
Тd
(С)
f
(%)
Тe
(С)
Тes
(С)
Комфортность P
(гПа)
Po
(гПа)
Тmin
(С)
Tmax
(С)
R
(мм)
R24
(мм)
S
(см)
21 18.05 СВ 7
{10}
10 км 9/9 300 м
[Sc]
-0.9 -1.0 99 -9 -9 1012.3 1011.4
00 19.05 СВ 9-12
{12}
10 км 6/6 300 м
[Cu hum]
-0.9 -1.0 99 -9 -9 1013.6 1012.7
03 19.05 СВ 9-11
{13}
10 км ясно -0.4 -0.8 97 -9 -8 1014.5 1013.6 -1.4 71
06 19.05 С 7-10
{12}
10 км ясно +0.1 -0.8 94 -7 -5 1016.0 1015.1
09 19.05 СВ 7-10
{11}
10 км ясно +0.3 -0.7 93 -7 -4 1016.6 1015.7
12 19.05 С 8-11
{12}
10 км 3/3 300 м
[Cu hum]
0.0 -0.7 95 -8 -7 1017.6 1016.7
15 19.05 СВ 8-10
{12}
20 км ясно -0.7 -1.7 93 -9 -8 1017.6 1016.7 +0.4
18 19.05 С 9-12
{12}
20 км 9/9 300 м
[Cu Sc]
-2.1 -2.9 94 -11 -11 1017.1 1016.2
21 19.05 С 8-11
{12}
20 км 9/9 300 м
[Sc]
-2.7 -3.4 95 -11 -11 1016.8 1015.9
00 20.05 СВ 8-11
{12}
20 км 10/10 300 м
[Sc]
-2.8 -3.8 93 -11 -11 1017.1 1016.2
03 20.05 С 8-11
{12}
20 км 10/10 300 м
[Sc]
-2.8 -3.5 95 -11 -11 1017.8 1016.7 -3.2 70
06 20.05 С 8-11
{12}
20 км 9/8 300 м
[Cu Sc Ci sp]
-2.1 -3.4 91 -10 -10 1018.1 1017.2
09 20.05 С 8-10
{11}
20 км 9/9 300 м
[Cu Sc]
-1.8 -2.9 92 -10 -10 1018.9 1018.0
12 20.05 С 7
{11}
20 км 9/9 300 м
[Sc diur, vesp]
-1.9 -3.0 92 -10 -9 1019.8 1018.9
15 20.05 С 6
{10}
20 км 8/8 300 м
[Sc diur, vesp]
-2.4 -3.4 93 -10 -10 1019.6 1018.7 -1.5
18 20.05 С 6 20 км 8/8 300 м
[Sc diur, vesp]
-2.3 -3.5 91 -10 -10 1019.2 1018.3
21 20.05 С 6 20 км 8/8 300 м
[Sc diur, vesp]
-2.7 -3.6 94 -10 -10 1018.6 1017.7
00 21.05 С 5 20 км 9/9 300 м
[Sc]
-2.3 -3.4 92 -9 -9 1018.7 1017.8
03 21.05 С 4 20 км 9/9 300 м
[Sc]
-2.1 -3.0 94 -8 -8 1018.6 1017.7 -2.7 70
06 21.05 СЗ 4 20 км 10/10 300 м
[Sc]
-1.8 -3.7 87 -8 -8 1018.8 1017.9
09 21.05 СЗ 4 20 км 10/10 300 м
[Sc]
-1.6 -3.5 87 -7 -7 1018.7 1017.8
12 21.05 СЗ 3 20 км 10/10 300 м
[Sc]
-2.1 -3.6 89 -7 -7 1018.6 1017.7
15 21.05 С 5 20 км 10/10 300 м
[Sc]
-2.7 -4.3 89 -9 -9 1017.9 1017.0 -1.5
18 21.05 З 3 20 км 10/10 300 м
[Sc]
-2.3 -3.2 94 -8 -8 1016.8 1015.9
21 21.05 З 4 10 км 10/10 300 м
[Sc]
-1.9 -2.1 99 -8 -8 1015.2 1014.3
00 22.05 СЗ 4 20 км 10/10 300 м
[Sc]
-1.6 -3.8 85 -7 -7 1014.0 1013.1
03 22.05 СЗ 4 20 км 10/10 300 м
[Sc]
-1.6 -3.8 85 -7 -7 1013.2 1012.3 -3.2 70
06 22.05 С 2 20 км 9/9 300 м
[Sc]
-1.2 -5.1 75 -5 -4 1012.7 1011.8
09 22.05 З 2 20 км 9/9 300 м
[Sc]
-0.4 -4.3 75 -4 -3 1012.3 1011.4
12 22.05 С 1 20 км 9/9 300 м
[Sc]
-0.1 -4.9 70 -2 -1 1011.7 1010.8
15 22.05 В 1 20 км 9/5 300 м
[Sc diur, vesp Ac cast]
-0.7 -5.3 71 -2 -2 1010.5 1009.7 +0.2
18 22.05 В 2 20 км 10/10 300 м
[Cu Sc]
-1.7 -4.1 84 -6 -6 1009.3 1008.5
21 22.05 В 3 4000 м слаб. ливневой снег 10/10 300 м
[Cb cap]
-2.8 -3.4 96 -8 -8 1008.0 1007.1
00 23.05 В 6 4000 м слаб. ливневой снег 10/10 300 м
[Cb cap]
-3.2 -3.2 100 -11 -11 1006.7 1005.8
03 23.05 В 6 н/о {ливн. осадки, снег} н/о -2.7 -2.7 100 -10 -10 1005.5 1004.6 -3.3 2 72
06 23.05 В 7 2000 м снег {ливн. осадки} 10/10 200 м
[Frnb Ns]
-2.3 -2.3 100 -10 -10 1004.9 1004.1
09 23.05 СВ 8-10
{11}
4000 м слаб. снег {метель} 10/10 300 м
[Frnb Ns]
-2.3 -2.3 100 -11 -11 1004.8 1004.0
12 23.05 СВ 8
{11}
4000 м слаб. снег {метель} 10/10 300 м
[Frnb Ns]
-2.2 -2.2 100 -11 -11 1005.4 1004.6
15 23.05 СВ 5
{10}
4000 м слаб. снег {метель} 10/10 300 м
[Frnb Ns]
-2.8 -2.9 99 -10 -10 1015.7 1004.8 -2.0 3
18 23.05 С 4 10 км слаб. снег {метель} 10/10 300 м
[Sc]
-3.1 -3.6 96 -9 -9 1005.6 1004.7
21 23.05 С 4 10 км 10/10 300 м
[Sc]
-2.5 -4.3 87 -9 -9 1004.8 1003.9
00 24.05 СВ 3 20 км 10/10 300 м
[Sc]
-2.5 -5.4 80 -8 -8 1004.1 1003.2
03 24.05 С 4 10 км слаб. снег 10/10 300 м
[Frnb Ns]
-2.3 -5.6 78 -8 -8 1003.7 1002.9 -3.3 0.3 74
06 24.05 С 8-11
{11}
20 км {снег} 10/10 300 м
[Cb cap]
-2.1 -4.1 86 -10 -10 1003.2 1002.4
09 24.05 С 9-11
{15}
20 км позёмок 10/10 300 м
[Cb cap]
-2.4 -4.2 87 -11 -11 1003.3 1002.5
12 24.05 С 11-14
{15}
10 км позёмок 10/10 300 м
[Cb cap]
-2.5 -3.2 95 -12 -12 1004.0 1003.1
15 24.05 С 11-14
{16}
10 км позёмок {ливн. осадки} 10/10 300 м
[Cb cap]
-3.0 -3.4 97 -13 -13 1004.2 1003.3 -1.9 0.0
18 24.05 СЗ 13-17
{17}
10 км позёмок {ливн. осадки} 10/10 300 м
[Cb cap]
-3.2 -4.3 92 -13 -13 1003.8 1002.9
21 24.05 СЗ 13-17
{20}
10 км позёмок 10/10 300 м
[Cb cap]
-3.1 -3.8 95 -13 -13 1003.3 1002.4
00 25.05 СЗ 14-18
{19}
н/о {метель} н/о -3.0 -4.1 92 -13 -13 1003.9 1003.0
03 25.05 СЗ 13-17
{20}
н/о {метель} н/о -3.0 -3.9 93 -13 -13 1004.6 1003.7 -3.4 74
06 25.05 СЗ 11-15
{18}
4000 м слаб. ливневой дождь {метель} 10/10 300 м
[Cb cap]
-2.6 -2.9 98 -12 -12 1005.5 1004.6
09 25.05 СЗ 10-14
{16}
4000 м слаб. ливневой дождь {метель} 10/10 300 м
[Cb cap]
-2.4 -2.7 98 -12 -12 1006.3 1005.5
12 25.05 СЗ 10-13
{15}
4000 м дымка {ливн. осадки} 10/0 2000 м
[As op]
-2.5 -2.8 98 -12 -12 1008.0 1007.1
15 25.05 СЗ 8-10
{14}
10 км {ливн. осадки, метель} 10/6 300 м
[Sc As trans]
-2.6 -3.3 95 -11 -11 1009.0 1008.1 -2.3 0.3
18 25.05 СЗ 7-10
{11}
20 км {ливн. осадки, метель} 10/8 300 м
[Sc Ac und]
-2.1 -2.9 94 -10 -10 1009.2 1008.4

 

Местоположение метеостанции Варандей (Ненецкий АО, Россия): широта 68.82 долгота 58.02 высота над уровнем моря 7 м.

В архиве по умолчанию представлена погода в Варандее за последнюю неделю. Архивные данные за месяц целиком и за предыдущие месяцы, начиная с января 2011 года, Вы можете получить, выбрав интересующий диапазон дат из раскрывающегося списка и нажав кнопку "Ввод!".


*Определитесь, кто Вы:
робот инопланетянин человек

Внимание! Время в таблицах - всемирное. Для получения местного времени необходимо прибавить поправку, которая равна 3 ч.

Смотрите также архив погоды в соседних городах и на ближайших метеорологических станциях:

Погода на Мысе Константиновском (Ненецкий АО, Россия) (106 км)
Погода на Мысе Белый Нос (Ненецкий АО, Россия) (122 км)
Погода в Хорей-Вере (Ненецкий АО, Россия) (155 км)
Погода в Ходоварихе (Ненецкий АО, Россия) (172 км)
Погода в Амдерме (Ненецкий АО, Россия) (179 км)
Погода в Имени Федорова (Ненецкий АО, Россия) (186 км)
Погода в Харуте (Ненецкий АО, Россия) (228 км)
Погода в Нарьян-Маре (Ненецкий АО, Россия) (245 км)
Погода в Сенгейском Шаре (Ненецкий АО, Россия) (277 км)
Погода в Усть-Каре (Ненецкий АО, Россия) (279 км)

Пояснения к столбцам:

Ветер - указаны скорость ветра в м/с - средняя за 10 мин, порывы в срок и между сроками (в фигурных скобках) и направление, откуда дует ветер: С - северный, СВ - северо-восточный, В - восточный, ЮВ - юго-восточный, Ю - южный, ЮЗ - юго-западный, З - западный, СЗ - северо-западный.
Видимость - горизонтальная дальность видимости в метрах или километрах. При видимости от 1 до 10 км при отсутствии осадков обычно наблюдается дымка, при ухудшении видимости до 1 км и менее - туман. В сухую погоду видимость может ухудшаться дымом, пылью или мглою.
Явления - указаны атмосферные явления, наблюдавшиеся в срок или в последний час перед сроком; фигурными скобками обозначены явления, наблюдавшиеся между сроками (за 1-3 часа до срока); квадратными скобками обозначены град или гололедные отложения с указанием их диаметра в мм.
Облачность - указаны через наклонную черту общая и нижняя облачность в баллах и высота нижней границы облаков в метрах; квадратными скобками обозначены формы облаков: Ci - перистые, Cs - перисто-слоистые, Cc - перисто-кучевые, Ac - высококучевые, As - высокослоистые, Sc - слоисто-кучевые, Ns - слоисто-дождевые, Cu - кучевые, Cb - кучево-дождевые. Подробнее классификацию облаков см. в Атласе облаков (PDF).
T - Температура воздуха - температура, измеренная на высоте 2 м над землей.
Td - Температура точки росы - температура, при понижении до которой содержащийся в воздухе водяной пар достигнет насыщения.
f - Относительная влажность воздуха - влажноcть воздуха, измеренная на высоте 2 м над землей.
Te - Эффективная температура - температура, которую ощущает одетый по сезону человек в тени. Характеристика душности погоды. При расчете учитывается влияние влажности воздуха и скорости ветра на теплоощущения человека.
Tes - Эффективная температура на солнце - температура, которую ощущает человек, с поправкой на солнечный нагрев. Характеристика знойности погоды. Зависит от высоты солнца над горизонтом, облачности и скорости ветра. Ночью, в пасмурную погоду, а также при ветре 12 м/с и более поправка равна нулю.
P - Атмосферное давление - приведенное к уровню моря атмосферное давление.
Po - Атмосферное давление - измеренное на уровне метеостанции атмосферное давление.
Tmin - Минимальная температура - минимум температуры воздуха на высоте 2 м над землей.
Tmax - Максимальная температура - максимум температуры воздуха на высоте 2 м над землей.
R - Количество осадков - Количество выпавших осадков за период времени, мм. При наведении курсора мыши на число - период времени, за который выпало указанное количество осадков.
R24 - Количество осадков - Количество выпавших осадков за 24 часа, мм.
S - Снежный покров - Высота снежного покрова, см. При наведении курсора мыши на число - состояние снежного покрова и степень покрытия местности в баллах.